This is the latest recevied weather packets stored in our database for station/object K1PM-WX. If no packets are shown the sender has not sent any weather packets the latest 10 day(s).
| Time | Temp. | Humidity | Pressure | Rain* | Wind** | Luminosity | Snow |
|---|---|---|---|---|---|---|---|
| 1777830836 | 11.67° C | 46% | 1035 hPa | 0 mm | - | - | - |
| 1777830536 | 11.67° C | 47% | 1035 hPa | 0 mm | - | - | - |
| 1777830237 | 12.22° C | 50% | 1035 hPa | 0 mm | - | - | - |
| 1777829936 | 11.67° C | 53% | 1035 hPa | 0 mm | - | - | - |
| 1777829636 | 10.56° C | 57% | 1035 hPa | 0 mm | - | - | - |
| 1777829337 | 10.56° C | 59% | 1035 hPa | 0 mm | - | - | - |
| 1777829036 | 10° C | 61% | 1035 hPa | 0 mm | - | - | - |
| 1777828736 | 10° C | 64% | 1036 hPa | 0 mm | - | - | - |
| 1777828437 | 10° C | 65% | 1036 hPa | 0 mm | - | - | - |
| 1777828137 | 10.56° C | 66% | 1036 hPa | 0 mm | - | - | - |
| 1777827836 | 10° C | 67% | 1036 hPa | 0 mm | - | - | - |
| 1777827536 | 10° C | 67% | 1036 hPa | 0 mm | - | - | - |
| 1777827236 | 10.56° C | 67% | 1036 hPa | 0 mm | - | - | - |
| 1777826937 | 10.56° C | 67% | 1036 hPa | 0 mm | - | - | - |
| 1777826636 | 10.56° C | 67% | 1036 hPa | 0 mm | - | - | - |
| 1777826336 | 10.56° C | 67% | 1036 hPa | 0 mm | - | - | - |
| 1777826036 | 10° C | 67% | 1036 hPa | 0 mm | - | - | - |
| 1777825736 | 10° C | 67% | 1036 hPa | 0 mm | - | - | - |
| 1777825437 | 9.44° C | 66% | 1036 hPa | 0 mm | - | - | - |
| 1777825136 | 10° C | 65% | 1036 hPa | 0 mm | - | - | - |
| 1777824836 | 10° C | 64% | 1036 hPa | 0 mm | - | - | - |
| 1777824536 | 10.56° C | 65% | 1036 hPa | 0 mm | - | - | - |
| 1777824236 | 10° C | 65% | 1036 hPa | 0 mm | - | - | - |
| 1777823936 | 10.56° C | 65% | 1036 hPa | 0 mm | - | - | - |
| 1777823636 | 10.56° C | 66% | 1036 hPa | 0 mm | - | - | - |
* Rain latest hour (hover to see other rain measurements)
** Current wind speed in m/s (hover to see current wind gust speed)